Terug naar catalogus

COSMOS 1275 DEB

ActiefPO
NORAD 12775·DEBRIS·🇷🇺 Russia

Gelanceerd Jun 4, 1981 vanaf Plesetsk Cosmodrome

Loading…

Volgende Passages (komende 24 uur)

TLE

VersSource: Space-Track

Epoch: Sep 13, 2026, 20:50 UTC

1 12775U 81053DU  26256.86843634  .00000764  00000-0  88553-3 0  9991
2 12775  83.3337 199.9370 0148843 145.8063 271.9279 13.63065189224180

Volg COSMOS 1275 DEB in realtime met AllMySat

Download on the App Store